Time,TemperatureF,DewpointF,PressureIn,WindDirection,WindDirectionDegrees,WindSpeedMPH,WindSpeedGustMPH,Humidity,HourlyPrecipIn,Conditions,Clouds,dailyrainin,SoftwareType,DateUTC
2013-08-16 00:05:00,57.4,54.0,30.16,NNE,33,3.0,3.0,88,0.00,,,0.00,weatherlink.com 1.10,2013-08-16 05:05:00,
2013-08-16 00:20:00,57.4,55.0,30.16,NE,46,3.0,3.0,90,0.00,,,0.00,weatherlink.com 1.10,2013-08-16 05:20:00,
2013-08-16 00:35:00,57.2,54.0,30.16,ENE,58,3.0,4.0,90,0.00,,,0.00,weatherlink.com 1.10,2013-08-16 05:35:00,
2013-08-16 00:50:00,57.7,55.0,30.16,ENE,77,1.0,3.0,89,0.00,,,0.00,weatherlink.com 1.10,2013-08-16 05:50:00,
2013-08-16 01:05:00,57.7,55.0,30.16,ENE,78,0.0,1.0,90,0.00,,,0.00,weatherlink.com 1.10,2013-08-16 06:05:00,
2013-08-16 01:20:00,56.9,54.0,30.16,East,96,0.0,1.0,90,0.00,,,0.00,weatherlink.com 1.10,2013-08-16 06:20:00,
2013-08-16 01:35:00,56.6,54.0,30.16,East,95,1.0,1.0,90,0.00,,,0.00,weatherlink.com 1.10,2013-08-16 06:35:00,
2013-08-16 01:50:00,56.3,54.0,30.16,East,89,1.0,1.0,90,0.00,,,0.00,weatherlink.com 1.10,2013-08-16 06:50:00,
2013-08-16 02:05:00,56.2,54.0,30.16,ENE,77,1.0,2.0,92,0.00,,,0.00,weatherlink.com 1.10,2013-08-16 07:05:00,
2013-08-16 02:20:00,56.4,54.0,30.16,NE,42,3.0,3.0,91,0.00,,,0.00,weatherlink.com 1.10,2013-08-16 07:20:00,
2013-08-16 02:35:00,55.7,54.0,30.16,NE,42,4.0,4.0,93,0.00,,,0.00,weatherlink.com 1.10,2013-08-16 07:35:00,
2013-08-16 02:50:00,55.9,54.0,30.16,NE,44,3.0,4.0,93,0.00,,,0.00,weatherlink.com 1.10,2013-08-16 07:50:00,
2013-08-16 03:05:00,54.7,52.0,30.16,ENE,60,2.0,3.0,91,0.00,,,0.00,weatherlink.com 1.10,2013-08-16 08:05:00,
2013-08-16 03:20:00,55.4,54.0,30.16,ENE,60,2.0,3.0,93,0.00,,,0.00,weatherlink.com 1.10,2013-08-16 08:20:00,
2013-08-16 03:35:00,55.2,54.0,30.16,ENE,60,3.0,3.0,94,0.00,,,0.00,weatherlink.com 1.10,2013-08-16 08:35:00,
2013-08-16 03:50:00,54.8,53.0,30.16,NE,51,4.0,4.0,95,0.00,,,0.00,weatherlink.com 1.10,2013-08-16 08:50:00,
2013-08-16 04:05:00,55.0,54.0,30.16,NE,55,4.0,4.0,96,0.00,,,0.00,weatherlink.com 1.10,2013-08-16 09:05:00,
2013-08-16 04:20:00,54.6,53.0,30.17,NE,55,2.0,3.0,95,0.00,,,0.00,weatherlink.com 1.10,2013-08-16 09:20:00,
2013-08-16 04:35:00,54.4,53.0,30.16,NE,55,2.0,2.0,95,0.00,,,0.00,weatherlink.com 1.10,2013-08-16 09:35:00,
2013-08-16 04:50:00,54.8,53.0,30.17,East,79,2.0,2.0,95,0.00,,,0.00,weatherlink.com 1.10,2013-08-16 09:50:00,
2013-08-16 05:05:00,54.6,53.0,30.17,ENE,62,4.0,4.0,95,0.00,,,0.00,weatherlink.com 1.10,2013-08-16 10:05:00,
2013-08-16 05:20:00,53.7,53.0,30.17,ENE,58,3.0,3.0,96,0.00,,,0.00,weatherlink.com 1.10,2013-08-16 10:20:00,
2013-08-16 05:35:00,54.3,53.0,30.18,NE,54,4.0,4.0,96,0.00,,,0.00,weatherlink.com 1.10,2013-08-16 10:35:00,
2013-08-16 05:50:00,53.6,52.0,30.18,NE,53,2.0,3.0,95,0.00,,,0.00,weatherlink.com 1.10,2013-08-16 10:50:00,
2013-08-16 06:05:00,53.8,53.0,30.18,ENE,70,2.0,2.0,96,0.00,,,0.00,weatherlink.com 1.10,2013-08-16 11:05:00,
2013-08-16 06:20:00,54.6,54.0,30.18,ENE,70,2.0,3.0,97,0.00,,,0.00,weatherlink.com 1.10,2013-08-16 11:20:00,
2013-08-16 06:35:00,53.5,52.0,30.19,ENE,61,1.0,3.0,96,0.00,,,0.00,weatherlink.com 1.10,2013-08-16 11:35:00,
2013-08-16 06:50:00,53.9,53.0,30.20,NE,37,2.0,2.0,96,0.00,,,0.00,weatherlink.com 1.10,2013-08-16 11:50:00,
2013-08-16 07:05:00,54.7,54.0,30.20,NE,34,3.0,3.0,96,0.00,,,0.00,weatherlink.com 1.10,2013-08-16 12:05:00,
2013-08-16 07:20:00,54.7,53.0,30.20,NE,48,3.0,4.0,95,0.00,,,0.00,weatherlink.com 1.10,2013-08-16 12:20:00,
2013-08-16 07:36:00,54.8,53.0,30.20,NE,44,1.0,3.0,95,0.00,,,0.00,weatherlink.com 1.10,2013-08-16 12:36:00,
2013-08-16 07:51:00,57.8,56.0,30.21,East,84,1.0,2.0,93,0.00,,,0.00,weatherlink.com 1.10,2013-08-16 12:51:00,
2013-08-16 08:06:00,58.8,57.0,30.21,ENE,71,2.0,3.0,93,0.00,,,0.00,weatherlink.com 1.10,2013-08-16 13:06:00,
2013-08-16 08:21:00,59.9,57.0,30.21,East,94,2.0,4.0,91,0.00,,,0.00,weatherlink.com 1.10,2013-08-16 13:21:00,
2013-08-16 08:36:00,61.6,59.0,30.21,East,91,3.0,4.0,92,0.00,,,0.00,weatherlink.com 1.10,2013-08-16 13:36:00,
2013-08-16 08:51:00,64.2,60.0,30.22,East,84,4.0,4.0,85,0.00,,,0.00,weatherlink.com 1.10,2013-08-16 13:51:00,
2013-08-16 09:06:00,65.2,59.0,30.22,ESE,108,3.0,5.0,81,0.00,,,0.00,weatherlink.com 1.10,2013-08-16 14:06:00,
2013-08-16 09:21:00,65.8,58.0,30.21,East,88,2.0,5.0,77,0.00,,,0.00,weatherlink.com 1.10,2013-08-16 14:21:00,
2013-08-16 09:36:00,66.4,59.0,30.22,East,91,2.0,6.0,77,0.00,,,0.00,weatherlink.com 1.10,2013-08-16 14:36:00,
2013-08-16 09:51:00,68.6,58.0,30.21,East,82,3.0,4.0,70,0.00,,,0.00,weatherlink.com 1.10,2013-08-16 14:51:00,
2013-08-16 10:06:00,69.2,59.0,30.21,SSE,159,4.0,8.0,70,0.00,,,0.00,weatherlink.com 1.10,2013-08-16 15:06:00,
2013-08-16 10:21:00,70.0,58.0,30.21,SSE,154,4.0,8.0,67,0.00,,,0.00,weatherlink.com 1.10,2013-08-16 15:21:00,
2013-08-16 10:36:00,70.6,57.0,30.21,SSE,164,3.0,9.0,62,0.00,,,0.00,weatherlink.com 1.10,2013-08-16 15:36:00,
2013-08-16 10:51:00,71.2,57.0,30.22,South,182,4.0,11.0,62,0.00,,,0.00,weatherlink.com 1.10,2013-08-16 15:51:00,
2013-08-16 11:06:00,72.1,58.0,30.22,SE,130,3.0,9.0,62,0.00,,,0.00,weatherlink.com 1.10,2013-08-16 16:06:00,
2013-08-16 11:21:00,71.8,57.0,30.21,ESE,122,4.0,13.0,61,0.00,,,0.00,weatherlink.com 1.10,2013-08-16 16:21:00,
2013-08-16 11:36:00,72.2,56.0,30.21,SSW,210,7.0,12.0,57,0.00,,,0.00,weatherlink.com 1.10,2013-08-16 16:36:00,
2013-08-16 11:51:00,72.5,56.0,30.21,ESE,110,3.0,7.0,57,0.00,,,0.00,weatherlink.com 1.10,2013-08-16 16:51:00,
2013-08-16 12:06:00,72.5,56.0,30.21,SSE,162,8.0,12.0,56,0.00,,,0.00,weatherlink.com 1.10,2013-08-16 17:06:00,
2013-08-16 12:21:00,72.7,57.0,30.21,SE,128,6.0,10.0,58,0.00,,,0.00,weatherlink.com 1.10,2013-08-16 17:21:00,
2013-08-16 12:36:00,72.7,56.0,30.21,South,188,5.0,8.0,57,0.00,,,0.00,weatherlink.com 1.10,2013-08-16 17:36:00,
2013-08-16 12:51:00,72.5,55.0,30.20,South,190,7.0,15.0,55,0.00,,,0.00,weatherlink.com 1.10,2013-08-16 17:51:00,
2013-08-16 13:06:00,72.9,57.0,30.20,South,170,6.0,11.0,57,0.00,,,0.00,weatherlink.com 1.10,2013-08-16 18:06:00,
2013-08-16 13:21:00,74.4,54.0,30.20,SE,143,4.0,14.0,50,0.00,,,0.00,weatherlink.com 1.10,2013-08-16 18:21:00,
2013-08-16 13:36:00,74.6,56.0,30.20,SSE,164,4.0,9.0,52,0.00,,,0.00,weatherlink.com 1.10,2013-08-16 18:36:00,
2013-08-16 13:51:00,73.9,54.0,30.19,SE,137,5.0,12.0,50,0.00,,,0.00,weatherlink.com 1.10,2013-08-16 18:51:00,
2013-08-16 14:06:00,74.3,54.0,30.19,East,96,2.0,13.0,49,0.00,,,0.00,weatherlink.com 1.10,2013-08-16 19:06:00,
2013-08-16 14:21:00,75.0,53.0,30.19,SW,216,4.0,13.0,47,0.00,,,0.00,weatherlink.com 1.10,2013-08-16 19:21:00,
2013-08-16 14:36:00,75.4,55.0,30.19,SSW,199,6.0,13.0,49,0.00,,,0.00,weatherlink.com 1.10,2013-08-16 19:36:00,
2013-08-16 14:51:00,74.6,56.0,30.19,South,179,3.0,8.0,52,0.00,,,0.00,weatherlink.com 1.10,2013-08-16 19:51:00,
2013-08-16 15:06:00,74.8,54.0,30.19,SSE,148,3.0,9.0,48,0.00,,,0.00,weatherlink.com 1.10,2013-08-16 20:06:00,
2013-08-16 15:22:00,74.1,56.0,30.18,East,101,1.0,8.0,53,0.00,,,0.00,weatherlink.com 1.10,2013-08-16 20:22:00,
2013-08-16 15:36:00,73.7,53.0,30.18,SSE,154,2.0,10.0,49,0.00,,,0.00,weatherlink.com 1.10,2013-08-16 20:36:00,
2013-08-16 15:51:00,76.0,55.0,30.18,East,100,7.0,14.0,49,0.00,,,0.00,weatherlink.com 1.10,2013-08-16 20:51:00,
2013-08-16 16:07:00,74.0,56.0,30.18,SE,141,1.0,5.0,53,0.00,,,0.00,weatherlink.com 1.10,2013-08-16 21:07:00,
2013-08-16 16:22:00,74.9,55.0,30.17,SE,143,0.0,6.0,50,0.00,,,0.00,weatherlink.com 1.10,2013-08-16 21:22:00,
2013-08-16 16:37:00,73.7,54.0,30.17,East,79,3.0,8.0,51,0.00,,,0.00,weatherlink.com 1.10,2013-08-16 21:37:00,
2013-08-16 16:52:00,72.6,55.0,30.18,East,91,3.0,4.0,54,0.00,,,0.00,weatherlink.com 1.10,2013-08-16 21:52:00,
2013-08-16 17:07:00,73.7,56.0,30.17,East,98,3.0,6.0,54,0.00,,,0.00,weatherlink.com 1.10,2013-08-16 22:07:00,
2013-08-16 17:22:00,72.8,57.0,30.17,East,94,1.0,3.0,57,0.00,,,0.00,weatherlink.com 1.10,2013-08-16 22:22:00,
2013-08-16 17:37:00,71.9,56.0,30.17,ENE,76,2.0,5.0,57,0.00,,,0.00,weatherlink.com 1.10,2013-08-16 22:37:00,
2013-08-16 17:52:00,70.7,55.0,30.17,East,97,0.0,3.0,57,0.00,,,0.00,weatherlink.com 1.10,2013-08-16 22:52:00,
2013-08-16 18:07:00,74.2,55.0,30.18,East,101,2.0,6.0,52,0.00,,,0.00,weatherlink.com 1.10,2013-08-16 23:07:00,
2013-08-16 18:22:00,74.8,54.0,30.17,SSE,165,4.0,9.0,48,0.00,,,0.00,weatherlink.com 1.10,2013-08-16 23:22:00,
2013-08-16 18:37:00,75.0,54.0,30.17,SSE,153,2.0,7.0,49,0.00,,,0.00,weatherlink.com 1.10,2013-08-16 23:37:00,
2013-08-16 18:52:00,75.2,56.0,30.17,SE,139,2.0,4.0,51,0.00,,,0.00,weatherlink.com 1.10,2013-08-16 23:52:00,
2013-08-16 19:07:00,75.1,58.0,30.17,SSE,149,0.0,1.0,55,0.00,,,0.00,weatherlink.com 1.10,2013-08-17 00:07:00,
2013-08-16 19:23:00,75.1,59.0,30.17,SSE,154,0.0,1.0,57,0.00,,,0.00,weatherlink.com 1.10,2013-08-17 00:23:00,
2013-08-16 19:38:00,73.4,57.0,30.17,SSE,154,0.0,0.0,57,0.00,,,0.00,weatherlink.com 1.10,2013-08-17 00:38:00,
2013-08-16 19:52:00,70.3,57.0,30.17,East,85,0.0,4.0,63,0.00,,,0.00,weatherlink.com 1.10,2013-08-17 00:52:00,
2013-08-16 20:07:00,69.6,57.0,30.17,East,84,1.0,3.0,65,0.00,,,0.00,weatherlink.com 1.10,2013-08-17 01:07:00,
2013-08-16 20:22:00,68.7,57.0,30.18,East,82,2.0,5.0,67,0.00,,,0.00,weatherlink.com 1.10,2013-08-17 01:22:00,
2013-08-16 20:37:00,66.8,57.0,30.18,ENE,76,2.0,4.0,72,0.00,,,0.00,weatherlink.com 1.10,2013-08-17 01:37:00,
2013-08-16 20:52:00,65.4,57.0,30.18,East,86,4.0,4.0,73,0.00,,,0.00,weatherlink.com 1.10,2013-08-17 01:52:00,
2013-08-16 21:07:00,65.7,56.0,30.18,East,86,5.0,6.0,70,0.00,,,0.00,weatherlink.com 1.10,2013-08-17 02:07:00,
2013-08-16 21:22:00,65.8,55.0,30.19,East,87,4.0,6.0,69,0.00,,,0.00,weatherlink.com 1.10,2013-08-17 02:22:00,
2013-08-16 21:37:00,64.8,56.0,30.19,East,84,3.0,5.0,72,0.00,,,0.00,weatherlink.com 1.10,2013-08-17 02:37:00,
2013-08-16 21:52:00,64.1,56.0,30.19,East,92,3.0,5.0,74,0.00,,,0.00,weatherlink.com 1.10,2013-08-17 02:52:00,
2013-08-16 22:08:00,63.0,56.0,30.19,East,92,3.0,5.0,77,0.00,,,0.00,weatherlink.com 1.10,2013-08-17 03:08:00,
2013-08-16 22:23:00,61.3,55.0,30.19,ENE,68,2.0,3.0,81,0.00,,,0.00,weatherlink.com 1.10,2013-08-17 03:23:00,
2013-08-16 22:37:00,60.7,56.0,30.20,East,85,2.0,3.0,83,0.00,,,0.00,weatherlink.com 1.10,2013-08-17 03:37:00,
2013-08-16 22:52:00,60.1,55.0,30.19,ENE,57,0.0,3.0,84,0.00,,,0.00,weatherlink.com 1.10,2013-08-17 03:52:00,
2013-08-16 23:07:00,59.5,55.0,30.20,SE,140,0.0,2.0,85,0.00,,,0.00,weatherlink.com 1.10,2013-08-17 04:07:00,
2013-08-16 23:22:00,60.0,55.0,30.20,SSE,154,0.0,2.0,84,0.00,,,0.00,weatherlink.com 1.10,2013-08-17 04:22:00,
2013-08-16 23:37:00,59.6,55.0,30.20,SE,136,0.0,2.0,84,0.00,,,0.00,weatherlink.com 1.10,2013-08-17 04:37:00,
2013-08-16 23:52:00,59.3,55.0,30.20,SE,146,1.0,2.0,85,0.00,,,0.00,weatherlink.com 1.10,2013-08-17 04:52:00,